Flag for Canada Weather past 2 weeks in Charlottetown, Pr.Edward I, Canada

Now
21 °F

Clear.


Feels Like: 8 °F
Forecast: 19 / 30 °F
Wind: 14 mph from Northwest

Location: Charlottetown

Current Time: Apr 2, 2015 at 1:28:18 AM

Latest Report: Apr 2, 2015 at 12:00 AM


Visibility: 15 mi

Pressure: 29.87 "Hg

Humidity: 54%

Dew point: 7 °F

Location of CharlottetownLocation

Historic Weather in Charlottetown — Graph

°F

Charlottetown temperature yesterday

Maximum temperature yesterday: 34 °F (at 12:00 AM)
Minimum temperature yesterday: 21 °F (at 9:00 PM)
Average temperature yesterday: 28 °F

Past Weeks' High & Low Weather Summary

 TemperatureHumidityPressure
High41 °F (Mar 26, 6:00 PM)100% (Mar 22, 4:00 AM)30.29 "Hg (Mar 22, 4:00 AM)
Low7 °F (Mar 23, 4:00 AM)29% (Mar 29, 4:00 PM)29.08 "Hg (Mar 22, 11:00 AM)
Average26 °F75%29.78 "Hg
* Reported Mar 17 11:00 PM — Apr 1 11:00 PM, Charlottetown, Weather by CustomWeather, © 2015

Note: Actual official high and low records may vary slightly from our data, if they occured in-between our weather recording intervals... More about our weather records

Advertising

Charlottetown weather history for previous 24 hours

 ConditionsComfort  
Time TempWeatherWind HumidityBarometerVisibility
11:00 PM
Wed, Apr 1
21 °FClear.13 mph58%29.86 "Hg15 mi
10:00 PM21 °FClear.8 mph58%29.85 "Hg15 mi
9:00 PM21 °FClear.5 mph58%29.83 "Hg15 mi
8:00 PM23 °FPassing clouds.5 mph54%29.81 "Hg15 mi
7:00 PM25 °FPassing clouds.7 mph54%29.79 "Hg15 mi
6:00 PM27 °FPassing clouds.12 mph46%29.78 "Hg15 mi
5:00 PM27 °FPassing clouds.14 mph46%29.76 "Hg15 mi
4:00 PM28 °FPassing clouds.10 mph47%29.75 "Hg15 mi
3:00 PM28 °FPassing clouds.12 mph51%29.75 "Hg15 mi
2:00 PM28 °FPassing clouds.12 mph59%29.74 "Hg15 mi
1:00 PM28 °FPassing clouds.10 mph47%29.76 "Hg15 mi
12:00 PM28 °FPassing clouds.12 mph55%29.77 "Hg15 mi
11:00 AM28 °FPassing clouds.10 mph55%29.78 "Hg15 mi
10:00 AM28 °FPassing clouds.9 mph51%29.77 "Hg15 mi
9:00 AM27 °FPassing clouds.12 mph54%29.77 "Hg15 mi
8:00 AM27 °FScattered clouds.7 mph59%29.73 "Hg15 mi
7:00 AM27 °FPassing clouds.8 mph69%29.71 "Hg15 mi
6:00 AM30 °FOvercast.5 mph75%29.69 "Hg15 mi
5:00 AM28 °FOvercast.5 mph86%29.67 "Hg15 mi
4:00 AM28 °FPassing clouds.5 mph86%29.66 "Hg15 mi
3:00 AM30 °FPassing clouds.3 mph86%29.66 "Hg15 mi
2:00 AM32 °FPassing clouds.6 mph80%29.66 "Hg15 mi
1:00 AM34 °FOvercast.8 mph75%29.66 "Hg15 mi
Weather by CustomWeather, © 2015

See weather overviewHow to use our weather pages